This demonstration page uses our WeatherBlox Daily Observations layout. Learn more.

Left ArrowRight Arrow

39.92423, -83.80882

Hourly Observations for February 15, 2019

Temp ( °F °C ) Dew Point ( °F °C ) Humidity (%) Winds ( mph kmh ) Pressure ( in mb ) Visibility ( mi km ) Precip ( " mm )
12:56 am 00:56 Cloudy 48 8.9 37 2.8 66 66 SW 14 22 29.62 1003 10 16 N/A
1:56 am 01:56 Cloudy with Light Rain 49 9.4 37 2.8 64 64 SW 17 28 29.62 1003 10 16 N/A
2:56 am 02:56 Cloudy 47 8.3 42 5.6 83 83 SW 16 26 29.62 1003 10 16 N/A
3:56 am 03:56 Cloudy 47 8.3 43 6.1 86 86 WSW 15 24 29.63 1003 10 16 N/A
4:56 am 04:56 Cloudy 45 7.2 40 4.4 83 83 WNW 23 37 29.66 1005 10 16 N/A
5:56 am 05:56 Cloudy 40 4.4 36 2.2 86 86 WNW 18 30 29.70 1006 10 16 N/A
6:27 am 06:27 Cloudy 36 2 34 1 93 93 WNW 20 31 29.74 1007 10 16 N/A
7:56 am 07:56 Cloudy 33 0.6 30 -1.1 89 89 W 18 30 29.76 1008 7 11 N/A
8:56 am 08:56 Cloudy 33 0.6 30 -1.1 89 89 W 13 20 29.78 1009 8 13 N/A
9:41 am 09:41 Cloudy 34 1 28 -2 81 81 W 14 22 29.82 1010 9 14 N/A
9:56 am 09:56 Cloudy 34 1.1 29 -1.7 82 82 W 21 33 29.79 1009 9 14 N/A
10:28 am 10:28 Mostly Sunny 36 2 28 -2 75 75 W 20 31 29.82 1010 10 16 N/A
10:56 am 10:56 Sunny 35 1.7 27 -2.8 72 72 WNW 20 31 29.81 1009 10 16 N/A
11:56 am 11:56 Sunny 37 2.8 28 -2.2 70 70 WNW 16 26 29.82 1010 10 16 N/A
12:56 pm 12:56 Sunny 35 1.7 23 -5 61 61 WNW 16 26 29.84 1011 10 16 N/A
1:56 pm 13:56 Sunny 34 1.1 23 -5 64 64 WNW 20 31 29.87 1012 10 16 N/A
2:56 pm 14:56 Sunny 32 undefined 23 -5 69 69 WNW 13 20 29.89 1012 10 16 N/A
3:56 pm 15:56 Sunny 31 -0.6 20 -6.7 64 64 WNW 18 30 29.90 1013 10 16 N/A
4:56 pm 16:56 Sunny 30 -1.1 20 -6.7 66 66 WNW 16 26 29.92 1013 10 16 N/A
5:56 pm 17:56 Mostly Sunny 29 -1.7 21 -6.1 72 72 WNW 10 17 29.92 1013 10 16 N/A
6:56 pm 18:56 Mostly Clear 28 -2.2 21 -6.1 75 75 WNW 6 9 29.94 1014 10 16 N/A
7:56 pm 19:56 Mostly Clear 28 -2.2 21 -6.1 75 75 WNW 8 13 29.98 1015 10 16 N/A
8:56 pm 20:56 Clear 28 -2.2 22 -5.6 78 78 W 6 9 29.99 1016 10 16 N/A
9:56 pm 21:56 Clear 26 -3.3 19 -7.2 75 75 NW 8 13 30.00 1016 10 16 N/A
10:56 pm 22:56 Mostly Clear 26 -3.3 21 -6.1 81 81 NNW 6 9 30.00 1016 10 16 N/A
11:56 pm 23:56 Clear 25 -3.9 21 -6.1 85 85 NNW 8 13 29.99 1016 10 16 N/A

Powered by AerisWeather